Карточка аэропорта UNKL

Внимание!
Информация на этой странице в стадии наполнения.
Если вы не увидели какой-то информации, или заметили неточность - пожалуйста сообщите нам!
Спасибо!
Команда RU-STAFF
Название аэропортаЕмельяново
Название аэропорта (англ.)Yemelyanovo
Превышение942 ft. (287.1 m.)
Координаты56°10.386', 92°29.598'
Высота перехода1100m
Эшелон переходаFL060
Коды ответчика5320-5377
Зона ОрВДКрасноярск РПИ (UNKL)
Данные METARUNKL 251000Z 11003MPS 9999 SCT039 08/01 Q1012 R29/CLRD65 NOSIG RMK QFE734
Проноз погоды (TAF)UNKL 250459Z 2506/2606 11003MPS 9999 BKN016CB FM251500 34003G08MPS 7000 -SHRA BKN017CB TEMPO 2518/2523 3000 -SHRA BKN006 BKN016CB
NOTAMshow/hide NOTAM
AWOS   TABLE

Информация о ВПП

ВПП Длина ВПП (м.) Покрытие Курс ВПП Частота ILS
113700Асфальтобетон109110.5
293700Асфальтобетон289111.7

Диспетчерские позиции

Позывной Наименование органа УВД Частота
UNKL_TWRКрасноярск-Старт/Посадка118.3
UNKL_GNDКрасноярск-Руление121.9
UNKL_APPКрасноярск-Подход127.7
UNKL_R_APPКрасноярск-Круг122.0



Спутниковое изображение